Погода в Костюковичи

Погода в Костюковичи : погода сейчас, прогноз погоды и архив. Всё, что Вы хотите узнать о погоде в Костюковичи!

Поиск расширенной информации на нашем сайте:

Другие новости

Новости СМИ2

Главная страница сайта

Новости сайта

02.10.2013

Напоминаем, что на нашем новом сайте вы можете получить высокодетализированные прогнозы погоды по пунктам России, СНГ и мира (включающие важные для авиации метеовеличины, такие как направление и скорость ветра, видимость, явления погоды, количество и форма облачности, нижняя и верхняя граница облачности), а также ознакомиться с разнообразными материалами по авиационной метеорологии и подборкой полезных ссылок на эту тему.

Сайт Метеоцентр.Азия посвящён разработке технологий оптимизации авиаметеорологического обслуживания, включая проектирование и перспективное создание нескольких автоматизированных авиаметеорологических систем:
- система выпуска высокодетальных прогностических карт явлений погоды для нижнего воздушного пространства по России и ближнему зарубежью;
- система верификации прогнозов TAF (выпускаемых синоптиками официальных АМСГ РФ и ближнего зарубежья) и AUTOTAF (выпускаемых сайтом Метеоцентр.Азия) - выявление ошибок, онлайн-сопоставление с фактической погодой METAR, автоматическое внесение коррективов в прогнозы при резком отклонении фактической погоды от прогноза, подсчёт оправдываемости прогнозов по элементам и в целом;
- система обработки, анализа и отображения авиаметеорологической информации для применения провайдерами метеорологической информации.

Рекомендуем: церетон

Погода в Костюковичи - сегодня

Время (UTC), дата Ветер
(°,м/с) 
Видим.   Явления Облачность Т
(°С)
Тd
(°С)
f(%) Тe
(°С)
Pmin
(гПа)
dP
(гПа)
Po
(мм)
O2
(г/м3)
Тmin Tmax R s Состояние
почвы
21 25.05.17 240 (ЮЗ) 0500 м  туман{дождь}  ?/?  
+12.6 +12.4 99 +19  1012.9  0.1  745  284      0.1     
00 26.05.17 160 (Ю) 0500 м  туман{дождь}  ?/?  
+12.4 +12.3 99 +19  1012.6  -0.3  745  285           
03 26.05.17 200 (Ю) 0500 м  туман  ?/?  
+12.1 +12 99 +17  1012.2  -0.4  744  285      0.1     
06 26.05.17 250 (З) 4200 м  дымка{туман}  10/10 120 м 
[St]
+13.2 +13 99 +20  1012.4  0.2  744  283  +12    0.1     
09 26.05.17 300 (СЗ) 17000 м    8/8 1000 м 
[Cu Sc]
+18.6 +11.4 63 +23  1012.2  0.2  745  279           
12 26.05.17 230 (ЮЗ) 35000 м    9/9 1000 м 
[Cu Sc]
+19.6 +7.9 47 +21  1011  -1.1  744  278           
15 26.05.17 280 (З) 1{10}  35000 м    10/0 средняя 
[Ac inh]
+15.2 +8.9 66 +17  1011.4  0.1  744  282           
18 26.05.17 280 (З) 35000 м    8/0 средняя 
[Ac inh]
+14.2 +10.1 76 +16  1011.9  0.4  744  283    +20.1       
21 26.05.17 300 (СЗ) 35000 м    3/0 средняя 
[Ac trans]
+11.4 +10 91 +13  1013.3  1.2  745  286           
00 27.05.17 330 (СЗ) 35000 м    ясно 
+10.1 +7.5 84 +10  1014  0.6  745  288           
09 27.05.17 350 (С) 35000 м    8/8 1000 м 
[Cu Sc]
+17.9 +7.8 52 +18  1016.6  0.7  748  281           
12 27.05.17 330 (СЗ) 35000 м    8/8 1000 м 
[Cu Sc]
+17.3 +5 44 +17  1016.8  0.2  748  283           
15 27.05.17 300 (СЗ) 35000 м    9/3 1000 м верхняя 
[Cu med, cong|Ci sp]
+19.1 +4.6 38 +20  1016.5  -0.2  748  281           
18 27.05.17 300 (СЗ) 35000 м    8/3 1000 м верхняя 
[Sc diur, vesp|Ci sp]
+16 +5.5 50 +16  1017.5  0.7  748  284    +20.1       
21 27.05.17 240 (ЮЗ) 35000 м    3/0 верхняя 
[Ci sp]
+10.3 +6.8 79 +11  1018.6  0.7  749  290           
00 28.05.17 220 (ЮЗ) 35000 м    6/0 верхняя 
[Ci sp]
+8.8 +6.3 84 +9  1018.5  -0.2  749  291           
09 28.05.17 320 (СЗ) 5{10}  28000 м    8/3 1000 м средняя, верхняя 
[Cu med, cong|Ac trans|Ci fib]
+19 +9.2 53 +19  1016.7  -0.3  748  280           
12 28.05.17 320 (СЗ) 25000 м    8/8 1000 м 
[Cu Sc]
+19.7 +11.1 58 +23  1017.4  0.7  748  279           
15 28.05.17 290 (З) 35000 м    6/6 1000 м 
[Cu Sc]
+21.3 +10.4 50 +23  1017.2  748  278           
18 28.05.17 180 (Ю) 35000 м    6/0 верхняя 
[Ci sp]
+17.1 +12.4 74 +24  1017.3  -0.3  748  281    +21.5       
21 28.05.17 190 (Ю) 30000 м    4/0 верхняя 
[Ci sp]
+13.1 +11.2 88 +17  1017.6  748  286           
00 29.05.17 200 (Ю) 35000 м    3/0 верхняя 
[Ci sp]
+12.3 +10 86 +14  1016.4  -1.2  747  286           
12 29.05.17 220 (ЮЗ) 6-13{14}  35000 м    9/9 1000 м 
[Cu Sc]
+24.7 +11.2 43 +28  1008.6  -1.7  742  272           
15 29.05.17 220 (ЮЗ) 5-10{14}  35000 м    9/6 1000 м верхняя 
[Cu Sc|Ci sp]
+24.5 +12.2 46 +29  1006.2  -2.4  740  271           
18 29.05.17 240 (ЮЗ) 4-14{12}  26000 м  слаб. ливневой дождь  9/3 1000 м кучево-дожд., средняя 
[Cb cap|Ac inh]
+21.7 +11.2 51 +25  1006.3  -0.1  740  274    +25.7  0.0     
Время (UTC), дата Ветер
(°,м/с) 
Видим.   Явления Облачность Т
(°С)
Тd
(°С)
f(%) Тe
(°С)
Pmin
(гПа)
dP
(гПа)
Po
(мм)
O2
(г/м3)
Тmin Tmax R s Состояние
почвы

Для получения пояснительной информации подведите курсор к названию столбца.

ПОГОДА в Костюковичи - архив

Всё, что Вы хотите узнать о погоде в Костюковичи - удобно и подробно!

Выберите нужную дату (начиная с 1 января 2015* года) и нажмите кнопку "Найти".
Будут отображены архивные сводки погоды по пункту Костюковичи, начиная с указанной даты.


Отображать данные в формате CSV (для использования в таблицах Excel)


Внимание! Наш архив погоды предназначен исключительно для личного некоммерческого использования в познавательных целях. Если Вам необходимы официальные справки о состоянии погоды (для производственных, юридических, коммерческих и т.п. целей), обращайтесь в органы Росгидромета.

*Примечание: данная дата относится к архиву по метеостанциям СССР (Россия, СНГ, Балтия).
Архив по метеостанциям Зарубежной Европы и Азии (кроме Китая) хранится 10 дней, по другим регионам земного шара (Китай, Африка, Америка, Австралия, Океания) - 1 день.

Костюковичи - район местоположения метеостанции


Название, широта, долгота, высота метеостанции:
Костюковичи 53.3°ш. 32.1°д. 167 м над ур. моря [Беларусь]

Дополнительная информация

В oтличие oт бoльшинства пoгoдных сайтoв мы публикуем пoдрoбную метеoинфoрмацию в детальнoм прoфессиoнальнoм фoрмате.

Характеристики температуры и влажнoсти вoздуха измеряются на высoте 2 м в тени вдали oт зданий и деревьев.
Скoрoсть ветра измеряется на высoте 10 м (на урoвне рoста челoвека скoрoсть ветра ниже в 1.5-2 раза). Если метеoстанция нахoдится в гoрoде или в лесу, тo скoрoсть ветра занижена на 2-4 м/с пo сравнению с oткрытым местoм. Скoрoсть ветра над акватoриями крупных рек и oзёр, а также на вершинах хoлмoв на 2-5 м/с выше, чем в oбычных услoвиях.
Атмoсфернoе давление в разных тoчках местнoсти мoжет значительнo oтличаться oт давления на метеoстанции, в зависимoсти oт услoвий рельефа (при пoдъёме на 10 м давление пoнижается примернo на 1 мм рт.ст.).